Temperature
27 27 26 25 25 26 27 28 28 27 27 25 25 26 27 27 27 27 26 26 25 25 24 23 22 22 21 21 20 20 19 18 18 18 18 18 17 17 17 17 17 17 16 16
27 27 26 26 26 26 27 28 28 28 27 26 25 26 26 26 26 26 25 25 24 24 23 23 22 22 21 21 20 20 20 19 18 18 18 18 17 17 17 17 17 16 16 16
25 27 26 26 26 27 27 28 28 27 27 26 25 25 25 25 25 25 25 24 24 23 23 22 22 21 21 21 21 20 20 19 19 18 18 18 17 17 17 17 17 17 16 16
24 24 23 26 28 28 28 28 28 27 26 25 25 24 24 24 24 24 24 23 23 23 23 22 22 21 21 20 20 20 20 19 19 18 18 17 17 17 17 17 17 17 16 16
22 23 23 24 25 25 25 26 26 26 25 25 25 24 23 22 22 22 22 22 22 22 22 21 21 21 20 20 20 19 19 19 18 18 17 17 17 16 16 16 16 16 16 16
22 22 22 23 23 24 25 24 25 25 24 24 24 23 21 21 21 21 20 20 20 21 21 21 20 20 20 19 19 19 18 18 18 18 17 17 17 16 16 16 16 16 15 15
21 22 22 21 22 23 22 22 23 24 23 23 22 22 21 20 20 19 19 19 19 19 19 19 19 19 19 19 18 18 18 17 17 17 17 17 16 16 16 15 15 15 15 15
21 21 20 21 21 20 20 21 22 22 22 21 21 20 19 19 18 18 18 18 18 18 18 18 18 18 18 17 17 17 17 17 17 16 16 16 16 15 15 15 14 14 14 14
19 19 19 19 20 19 20 20 21 21 21 20 20 19 18 18 17 17 17 17 17 17 17 17 17 17 17 16 16 16 16 16 16 15 15 15 15 14 14 14 14 14 14 14
19 19 19 19 20 20 20 20 20 20 20 20 19 18 17 17 17 16 16 16 16 16 16 15 15 15 15 15 15 15 15 15 15 15 15 15 14 14 14 14 13 13 13 13
19 19 20 19 19 19 19 20 20 20 19 19 18 18 17 16 16 16 15 15 15 15 15 14 14 14 14 14 14 14 14 14 14 14 14 14 14 14 13 13 13 13 13 13
18 19 19 18 19 19 19 19 19 19 19 18 18 17 16 16 15 15 15 14 14 14 14 14 14 14 13 13 13 13 13 13 13 13 13 13 13 13 13 13 13 13 13 13
18 18 18 18 19 19 18 18 18 18 17 17 17 16 16 15 15 14 14 14 14 14 13 13 13 13 13 13 13 13 13 13 13 13 13 13 13 13 13 13 13 13 13 13
18 18 18 18 18 18 18 18 17 17 16 16 16 15 15 15 15 14 14 14 13 13 13 13 13 12 12 12 12 12 12 12 12 13 13 13 13 13 13 13 13 13 13 13
17 17 17 17 17 17 17 17 17 16 16 15 15 15 15 14 14 14 13 13 13 13 13 13 12 12 12 12 12 12 12 12 12 12 12 12 13 13 13 13 13 12 12 12
17 17 17 17 17 16 16 16 16 15 15 15 15 14 14 14 14 13 13 13 13 12 12 12 12 12 12 12 11 12 12 12 12 12 12 12 12 13 12 12 12 12 12 12
16 16 16 16 16 15 15 15 15 15 15 14 14 14 14 14 13 13 13 13 12 12 12 12 11 11 11 11 11 11 12 12 12 12 12 12 12 12 12 12 11 11 11 11
16 16 15 15 15 15 14 14 14 14 14 14 14 14 13 13 13 13 12 12 12 12 12 11 11 11 11 11 11 11 11 11 12 12 12 12 11 11 11 11 11 11 10 10
15 15 15 14 14 14 14 14 14 14 14 14 14 13 13 13 12 12 12 12 12 12 11 11 11 11 11 10 11 11 11 11 11 11 11 11 11 11 11 10 10 10 10 9
14 14 14 14 14 14 14 14 14 13 13 13 13 13 12 12 12 12 11 11 11 11 11 11 11 10 10 10 10 10 10 11 11 11 11 10 10 10 10 9 9 9 9 8
13 13 13 13 13 13 13 13 13 13 13 12 12 12 12 11 11 11 11 11 11 11 10 10 10 10 10 10 10 10 10 10 10 10 10 10 9 9 9 8 8 8 7 7
12 12 12 13 13 13 12 12 12 12 12 12 11 11 11 11 11 11 11 10 10 10 10 9 9 9 9 9 9 9 9 9 9 9 9 8 8 8 7 7 7 6 6 6
11 12 12 12 12 12 12 12 12 11 11 11 11 11 11 10 10 10 10 10 9 9 9 9 9 8 8 8 8 8 8 8 8 8 7 7 7 7 6 6 6 5 5 5
11 11 11 11 11 11 11 11 11 11 11 11 11 10 10 10 10 10 9 9 9 8 8 8 8 7 7 7 7 7 7 7 7 7 6 6 6 6 5 5 5 4 4 4
10 10 10 10 10 11 11 11 11 11 11 10 10 10 10 9 9 9 8 8 8 8 8 7 7 7 7 7 6 6 6 6 6 5 5 5 5 5 4 4 4 4 4 4
10 10 10 10 10 10 10 10 10 10 10 10 9 9 9 8 8 8 8 7 7 7 7 7 6 6 6 6 6 5 5 5 5 4 4 4 4 4 3 3 3 3 3 3
10 10 10 10 10 10 9 9 9 9 9 8 8 8 8 8 7 7 7 7 6 6 6 6 5 5 5 5 4 4 4 4 4 4 3 3 3 3 3 3 3 3 3 3
Wind_Speed
12 8 6 6 11 15 15 13 11 7 2 3 1 1 1 3 6 8 10 11 10 11 10 11 11 10 10 10 10 11 12 12 12 10 9 9 9 8 8 9 10 8 8 8
12 11 9 10 13 14 14 13 11 9 3 4 5 3 3 3 4 6 7 8 9 9 10 10 10 10 10 10 10 10 11 11 11 11 10 10 9 9 9 8 8 9 9 9
12 12 9 12 12 13 12 10 8 6 2 5 6 6 5 4 3 4 5 6 6 7 8 8 9 8 8 9 10 11 10 10 10 11 10 10 11 10 10 9 9 8 9 9
9 8 11 7 6 6 6 4 1 4 4 6 8 8 7 5 5 5 5 5 4 4 5 7 8 8 7 8 8 8 9 8 8 9 9 9 9 9 9 8 8 8 8 9
6 9 7 7 7 5 3 2 5 5 5 5 8 11 10 9 9 8 7 5 4 3 4 5 5 6 6 6 6 7 7 7 7 7 7 8 8 7 7 7 7 8 8 9
7 7 6 4 7 7 2 1 5 7 6 4 4 7 7 9 10 10 9 8 7 6 6 5 4 5 6 5 4 4 5 5 5 5 6 7 7 6 5 5 6 7 7 7
9 7 2 5 8 6 1 1 5 7 8 7 7 9 10 11 11 10 9 10 10 9 8 7 6 6 6 5 4 3 3 3 3 3 3 3 3 3 3 4 5 6 7 7
4 4 1 7 6 4 3 3 4 7 10 12 14 15 13 12 11 11 10 10 10 10 10 10 9 8 8 6 4 5 5 4 3 3 2 2 2 2 2 3 4 5 6 7
2 2 3 5 6 3 3 5 5 8 11 12 14 14 13 12 11 11 11 11 10 10 11 10 10 9 8 5 5 5 5 4 3 3 3 2 1 3 3 3 5 6 5 5
2 3 5 7 8 8 7 6 6 9 11 14 14 13 12 11 10 10 10 10 10 11 10 10 9 9 8 6 6 5 4 2 1 2 2 2 1 2 3 2 3 3 3 3
3 3 5 9 9 8 8 7 9 13 13 13 13 13 12 11 10 10 10 10 10 9 9 9 9 8 8 6 6 5 3 2 1 1 0 1 2 2 2 1 2 3 3 3
2 4 4 4 5 7 8 9 10 12 13 13 13 13 12 11 10 10 10 9 9 9 9 9 8 8 7 7 6 4 3 3 3 2 1 1 1 1 4 5 6 8 7 6
4 5 6 6 7 9 10 11 12 13 13 13 12 12 11 10 9 9 9 9 8 8 7 7 7 6 6 6 6 5 4 3 3 3 3 3 2 2 3 4 8 10 11 11
5 6 7 7 9 11 12 13 13 13 12 13 12 11 10 10 9 9 8 8 7 6 6 6 6 6 5 4 4 3 4 3 3 3 3 4 4 4 4 4 3 4 8 13
7 8 8 10 11 11 11 12 12 12 12 12 11 10 9 9 8 8 7 7 6 6 6 6 6 5 4 4 4 4 5 4 4 4 5 5 5 5 5 4 4 5 4 4
7 8 10 11 11 10 10 11 11 10 10 10 9 8 8 7 6 6 6 6 6 6 5 5 4 4 4 5 5 4 4 6 5 5 6 6 5 5 5 5 5 5 6 5
7 7 8 9 9 9 9 9 8 8 8 8 7 6 6 6 5 5 5 5 4 4 4 3 4 5 5 5 7 7 6 6 6 6 6 5 5 6 6 6 7 6 6 4
9 9 9 9 9 9 8 8 7 7 7 6 5 5 5 5 5 6 6 6 4 3 3 3 4 4 5 5 5 7 7 7 6 6 5 5 6 6 7 7 8 8 6 6
11 11 10 9 8 7 6 6 6 5 5 5 5 5 4 4 5 5 5 6 5 4 3 4 4 5 5 5 7 6 8 8 7 6 6 6 6 6 6 7 8 7 8 7
10 9 9 8 8 7 6 5 5 5 5 5 5 5 5 6 6 6 6 5 4 4 4 5 5 6 5 6 8 8 9 9 8 8 7 7 7 7 7 8 8 8 8 8
9 9 8 7 6 6 6 6 6 5 5 5 5 5 5 5 5 5 5 5 3 4 5 4 3 5 7 8 9 10 10 10 9 9 8 8 8 8 8 9 9 9 9 9
8 7 7 6 6 6 5 5 5 5 5 5 5 6 5 5 5 4 3 3 2 4 5 5 5 6 8 10 10 10 10 10 9 8 8 8 8 8 8 9 9 9 9 9
6 6 6 6 6 6 6 5 5 5 5 6 6 6 6 5 6 6 4 3 3 4 5 5 4 5 9 9 9 9 9 9 9 8 8 7 7 8 8 9 8 8 9 9
5 6 6 6 7 6 6 6 6 5 5 5 5 4 4 4 4 4 3 3 4 4 5 3 3 6 7 7 8 7 7 7 7 8 8 8 8 8 8 8 8 8 9 10
5 5 5 5 5 5 6 6 6 5 5 5 5 5 5 4 5 5 4 4 4 5 5 3 4 6 6 6 7 7 7 7 8 9 8 8 8 8 8 8 8 9 9 9
4 4 4 5 5 4 5 5 5 6 6 6 6 6 6 5 5 5 4 5 6 5 6 5 5 5 5 6 7 7 7 7 7 7 8 8 8 8 8 8 10 9 9 9
3 3 3 4 4 5 5 6 6 6 6 6 7 7 7 6 5 5 6 6 6 6 6 6 6 6 6 6 6 6 6 7 7 7 7 7 7 7 8 9 8 8 9 9
Wind_Direction
249 242 221 227 252 264 269 271 271 270 198 139 182 240 118 133 150 157 160 165 165 165 164 165 166 169 172 176 176 178 175 180 182 182 184 187 188 187 188 192 197 197 203 207
260 241 237 236 239 250 256 261 259 259 230 134 148 132 101 100 127 143 151 161 161 157 157 161 165 170 172 174 172 172 174 181 178 181 186 191 191 191 192 197 202 196 205 210
261 265 259 249 240 241 244 251 250 238 176 110 117 95 94 88 91 127 140 137 148 157 156 161 166 166 171 174 173 173 177 181 177 179 187 193 196 195 198 200 205 206 209 215
268 271 258 262 282 265 254 245 79 95 110 116 109 107 89 76 81 78 93 107 112 141 152 163 167 169 173 176 170 173 175 177 176 181 189 194 199 199 200 200 206 211 215 219
260 254 260 291 319 329 304 89 65 82 82 98 126 110 78 58 57 61 61 70 82 98 126 128 142 151 161 172 168 172 176 175 177 182 185 190 200 205 201 204 210 216 221 224
245 247 243 269 324 316 316 135 69 79 79 81 108 114 94 75 67 55 47 51 57 62 65 76 95 128 136 142 146 164 168 171 177 184 187 188 192 196 197 204 217 223 226 227
248 248 251 345 336 334 286 46 54 85 93 89 86 92 97 84 78 73 62 60 58 58 60 59 70 85 95 95 94 93 100 117 129 145 163 167 168 178 195 216 232 237 242 238
258 249 282 2 23 37 49 32 59 82 90 94 92 93 88 81 75 70 66 65 65 63 59 54 57 74 79 71 70 71 74 79 85 103 142 160 141 169 197 225 247 251 252 254
30 51 51 40 59 63 75 60 57 78 88 98 96 92 89 83 77 71 66 64 64 69 67 61 59 63 69 57 61 73 72 69 67 76 77 87 149 214 218 221 242 255 254 258
87 62 53 50 53 48 55 66 85 90 93 96 97 95 89 85 79 73 68 67 66 66 66 62 59 58 54 46 47 60 71 78 105 120 150 158 191 227 230 232 246 273 284 290
74 68 60 49 52 55 53 58 76 85 90 97 100 97 93 87 80 75 69 65 65 66 66 64 58 51 42 34 33 37 40 31 6 27 177 217 219 229 236 242 226 235 267 290
43 45 65 62 63 83 83 74 78 86 89 88 91 93 90 87 82 78 74 70 67 66 63 61 57 53 43 34 33 30 19 10 350 337 326 277 262 262 227 226 213 213 217 228
67 65 78 75 69 80 81 78 78 77 81 84 85 88 89 87 84 80 76 72 68 63 60 56 51 49 45 38 32 23 4 353 343 335 324 311 300 285 277 253 235 239 240 240
72 80 80 76 76 81 86 88 87 86 83 83 80 78 79 77 75 72 66 63 60 59 56 50 46 40 34 32 29 8 341 338 317 314 315 314 304 290 281 283 278 263 242 236
66 83 91 94 90 88 89 92 91 87 83 81 80 77 75 72 69 65 57 52 46 39 40 38 32 24 11 6 1 347 334 329 332 325 311 304 300 297 299 306 310 307 303 254
85 88 91 92 90 88 88 87 86 83 81 79 74 70 68 66 63 59 50 42 36 29 24 19 10 4 0 354 339 320 304 294 291 296 300 303 306 314 320 322 317 311 306 309
95 92 94 97 93 85 82 81 81 79 79 76 68 62 57 55 48 43 33 31 33 16 5 3 6 357 349 341 328 318 317 311 287 285 298 310 320 322 319 312 309 308 308 317
90 90 91 95 95 92 85 80 74 65 59 59 58 56 43 35 24 21 10 359 352 348 356 33 22 341 328 336 328 318 315 313 310 310 314 321 321 312 306 305 304 305 307 309
89 87 85 83 84 87 84 77 72 61 46 39 35 32 23 21 17 6 359 349 336 334 14 30 5 329 332 359 336 307 304 307 310 314 316 314 304 304 308 310 311 314 318 319
80 83 85 80 73 68 62 53 49 42 31 25 18 12 9 5 357 346 343 334 341 358 4 9 341 324 334 359 339 312 308 310 314 316 314 315 315 318 321 322 322 323 323 321
69 63 59 56 55 50 45 36 26 17 15 11 3 356 352 344 333 325 315 320 3 3 348 342 342 353 4 346 316 311 313 319 320 321 323 324 325 325 326 327 326 325 326 325
54 48 37 29 31 29 23 8 358 357 359 351 341 334 328 320 313 311 318 331 13 15 343 341 359 15 355 330 319 317 318 321 325 327 327 328 328 327 325 325 325 324 323 322
40 30 22 17 11 4 355 345 345 351 346 336 331 326 323 327 322 319 329 3 9 6 338 344 9 357 334 321 320 324 328 331 329 327 327 329 328 326 324 322 323 321 318 319
22 12 6 0 354 343 338 342 342 335 323 315 321 334 335 328 337 346 7 29 17 358 341 9 346 324 312 320 325 329 331 334 332 330 328 328 328 329 328 328 328 327 323 321
2 347 341 346 334 334 338 332 332 337 336 344 351 3 1 357 348 349 356 358 1 333 330 329 285 295 312 331 338 339 339 343 340 333 331 330 329 331 332 331 330 325 319 317
339 327 341 326 321 320 327 338 339 339 341 343 344 349 348 345 343 343 343 342 350 339 330 338 346 341 346 349 348 345 341 338 338 340 340 335 335 336 336 337 330 326 323 322
320 321 318 324 347 356 351 347 344 346 350 351 343 339 341 343 345 351 353 355 352 349 354 358 359 358 353 350 353 351 349 351 356 353 346 342 341 339 336 333 331 328 326 326
Height
1432 1434 1437 1444 1446 1441 1441 1437 1441 1440 1441 1443 1444 1443 1442 1443 1446 1450 1454 1458 1463 1467 1472 1476 1480 1484 1488 1492 1495 1498 1501 1504 1506 1509 1512 1515 1517 1519 1521 1523 1525 1527 1528 1530
1433 1431 1434 1440 1438 1436 1435 1432 1432 1433 1437 1434 1441 1443 1444 1445 1447 1450 1453 1457 1461 1465 1469 1473 1477 1480 1484 1488 1491 1494 1497 1501 1503 1506 1508 1511 1513 1516 1518 1520 1522 1524 1525 1526
1441 1431 1434 1442 1432 1431 1429 1426 1428 1434 1436 1436 1440 1443 1446 1448 1449 1451 1453 1456 1460 1463 1466 1470 1473 1477 1481 1485 1488 1490 1494 1497 1499 1502 1505 1507 1510 1512 1514 1516 1518 1519 1521 1522
1442 1443 1455 1435 1420 1421 1424 1424 1424 1429 1433 1436 1440 1446 1448 1450 1451 1452 1454 1457 1460 1463 1466 1468 1471 1475 1478 1482 1485 1488 1490 1493 1495 1498 1501 1503 1506 1507 1509 1511 1513 1514 1516 1517
1449 1451 1446 1436 1429 1429 1431 1431 1428 1431 1434 1438 1441 1444 1450 1453 1454 1455 1456 1458 1460 1462 1465 1467 1469 1472 1475 1478 1481 1484 1486 1488 1491 1494 1496 1499 1500 1502 1505 1507 1509 1510 1511 1512
1447 1452 1456 1443 1432 1430 1431 1439 1433 1434 1437 1440 1441 1447 1456 1456 1457 1457 1458 1459 1461 1463 1464 1465 1468 1471 1473 1476 1479 1481 1482 1485 1488 1491 1493 1494 1496 1498 1500 1502 1504 1505 1506 1507
1446 1448 1446 1442 1435 1433 1447 1448 1438 1438 1439 1443 1445 1450 1457 1458 1459 1460 1461 1462 1463 1463 1464 1466 1468 1470 1472 1475 1477 1479 1481 1484 1485 1487 1489 1491 1493 1495 1497 1499 1500 1501 1501 1501
1445 1451 1455 1445 1439 1445 1448 1443 1441 1441 1442 1446 1449 1454 1458 1460 1461 1463 1464 1465 1465 1465 1466 1468 1469 1471 1472 1475 1477 1478 1480 1482 1483 1484 1486 1488 1490 1492 1493 1495 1496 1497 1497 1497
1452 1455 1450 1447 1447 1448 1446 1446 1445 1445 1447 1449 1452 1456 1460 1463 1465 1466 1467 1468 1469 1469 1470 1471 1472 1473 1475 1477 1478 1479 1479 1481 1482 1482 1484 1485 1487 1489 1490 1490 1492 1493 1493 1492
1451 1451 1449 1449 1449 1449 1449 1448 1448 1448 1450 1453 1456 1460 1464 1466 1469 1470 1471 1471 1472 1472 1473 1473 1474 1475 1477 1478 1478 1479 1480 1481 1481 1482 1482 1483 1485 1486 1486 1486 1488 1489 1489 1489
1452 1452 1451 1453 1452 1452 1452 1453 1453 1454 1456 1459 1461 1464 1468 1470 1472 1473 1474 1475 1475 1476 1476 1476 1476 1477 1478 1478 1479 1479 1480 1481 1481 1481 1482 1482 1482 1483 1484 1483 1484 1485 1485 1485
1455 1454 1454 1456 1456 1455 1455 1456 1458 1459 1462 1464 1466 1468 1471 1474 1475 1477 1477 1478 1479 1479 1479 1479 1479 1479 1479 1479 1479 1480 1481 1481 1481 1481 1481 1481 1481 1481 1481 1481 1481 1481 1481 1481
1455 1455 1456 1457 1457 1458 1459 1461 1462 1465 1467 1469 1471 1473 1475 1477 1479 1480 1481 1481 1482 1482 1482 1482 1482 1482 1482 1481 1481 1481 1481 1481 1481 1481 1481 1480 1479 1479 1479 1479 1478 1478 1477 1476
1457 1458 1459 1460 1460 1461 1463 1465 1467 1470 1472 1474 1476 1477 1479 1481 1482 1483 1483 1484 1484 1484 1484 1484 1484 1484 1484 1483 1482 1482 1482 1482 1481 1480 1480 1479 1478 1478 1477 1476 1476 1475 1474 1473
1460 1460 1462 1462 1464 1466 1468 1470 1472 1474 1476 1478 1480 1481 1483 1484 1485 1485 1486 1486 1486 1486 1486 1485 1485 1485 1485 1484 1484 1483 1482 1481 1480 1479 1479 1478 1477 1476 1475 1474 1473 1472 1471 1470
1464 1464 1465 1467 1469 1471 1473 1474 1476 1479 1480 1482 1484 1485 1486 1486 1487 1488 1488 1488 1487 1487 1487 1486 1486 1486 1485 1485 1484 1483 1481 1480 1479 1478 1478 1476 1475 1474 1473 1472 1471 1469 1468 1466
1467 1469 1470 1472 1474 1476 1478 1479 1481 1482 1483 1485 1486 1487 1488 1488 1488 1489 1489 1489 1488 1488 1487 1487 1486 1486 1485 1484 1483 1482 1481 1479 1478 1477 1476 1474 1473 1472 1470 1469 1468 1466 1464 1462
1471 1472 1474 1476 1478 1480 1481 1483 1484 1485 1486 1486 1487 1488 1488 1489 1489 1489 1489 1489 1488 1488 1487 1486 1485 1485 1484 1483 1481 1480 1479 1478 1476 1475 1473 1472 1470 1469 1467 1466 1464 1462 1460 1458
1475 1476 1478 1480 1481 1483 1484 1485 1486 1487 1488 1488 1488 1488 1489 1489 1489 1489 1489 1488 1487 1487 1486 1485 1484 1483 1483 1481 1480 1478 1477 1476 1474 1472 1470 1468 1467 1465 1463 1462 1460 1458 1456 1454
1479 1480 1482 1483 1484 1485 1486 1487 1488 1488 1489 1489 1489 1489 1489 1489 1489 1489 1488 1487 1486 1485 1484 1483 1482 1482 1481 1479 1477 1476 1475 1473 1471 1469 1467 1465 1464 1462 1460 1458 1456 1454 1451 1449
1482 1484 1485 1486 1487 1488 1488 1489 1489 1489 1489 1489 1489 1489 1489 1488 1488 1487 1486 1486 1484 1484 1483 1482 1480 1479 1478 1476 1475 1474 1472 1470 1468 1466 1464 1462 1460 1458 1456 1454 1452 1449 1446 1444
1486 1487 1488 1488 1489 1489 1489 1489 1489 1489 1489 1489 1489 1488 1488 1487 1486 1485 1484 1484 1483 1481 1481 1480 1478 1476 1475 1473 1472 1470 1469 1467 1465 1463 1460 1458 1456 1454 1452 1449 1447 1445 1442 1439
1489 1489 1490 1490 1490 1490 1490 1489 1489 1489 1489 1488 1488 1487 1486 1485 1485 1484 1483 1482 1480 1479 1478 1477 1475 1473 1471 1470 1469 1467 1465 1463 1461 1459 1457 1455 1452 1450 1448 1445 1443 1440 1437 1434
1491 1491 1491 1491 1490 1490 1489 1489 1489 1488 1487 1487 1486 1485 1484 1484 1483 1482 1481 1479 1478 1477 1476 1474 1472 1470 1469 1467 1466 1464 1462 1460 1457 1455 1453 1451 1449 1446 1444 1441 1438 1435 1432 1429
1492 1492 1491 1491 1490 1489 1489 1488 1488 1487 1486 1485 1484 1483 1483 1482 1481 1480 1479 1477 1476 1475 1473 1471 1469 1467 1466 1465 1463 1461 1459 1456 1454 1452 1450 1447 1445 1442 1440 1437 1434 1431 1428 1425
1492 1491 1491 1491 1490 1489 1488 1487 1487 1486 1485 1484 1483 1482 1481 1480 1479 1478 1476 1475 1473 1472 1471 1469 1467 1465 1464 1462 1460 1458 1456 1454 1451 1449 1446 1444 1441 1439 1436 1433 1430 1427 1424 1421
1491 1491 1490 1490 1489 1489 1488 1487 1486 1485 1484 1483 1482 1481 1479 1478 1477 1475 1474 1472 1471 1469 1468 1466 1464 1463 1461 1459 1457 1455 1453 1451 1448 1446 1443 1441 1438 1436 1433 1430 1427 1424 1420 1417